FW6182 Weather Reports


time (UTC)temp
C
wind
direction
speed
KPH
gust
KPH
rain 1hr
cm
rain 24hr
cm
rain mn
cm
humidity
%
barometer
mb
20260906174656 37 339 3.2 19.3 0.00 0.00 0.00 41 885.0
20260906174154 37 239 8.0 19.3 0.00 0.00 0.00 41 874.1
20260906173138 38 355 4.8 19.3 0.00 0.00 0.00 39 1019.8
20260906171604 38 286 4.8 19.3 0.00 0.00 0.00 40 1018.7
20260906171103 37 181 1.6 19.3 0.00 0.00 0.00 41 963.9
20260906170602 37 326 6.4 19.3 0.00 0.00 0.00 42 1051.1
20260906165044 38 355 4.8 19.3 0.00 0.00 0.00 41 1124.7
20260906164544 37 341 6.4 19.3 0.00 0.00 0.00 42 1050.7
20260906164043 37 259 4.8 19.3 0.00 0.00 0.00 44 1023.4
20260906163026 37 325 8.0 19.3 0.00 0.00 0.00 44 1083.2
20260906161454 36 351 4.8 19.3 0.00 0.00 0.00 47 1021.8
20260906160437 37 329 3.2 19.3 0.00 0.00 0.00 48 1059.5
20260906155421 36 308 4.8 19.3 0.00 0.00 0.00 49 1111.6
20260906154920 36 356 4.8 19.3 0.00 0.00 0.00 49 1153.2
20260906154419 35 357 8.0 19.3 0.00 0.00 0.00 50 1145.1
20260906153918 35 354 6.4 19.3 0.00 0.00 0.00 51 1131.4
20260906151829 33 352 4.8 19.3 0.00 0.00 0.00 54 1000.7
20260906150813 33 262 4.8 19.3 0.00 0.00 0.00 57 824.0
20260906150312 32 229 4.8 19.3 0.00 0.00 0.00 57 800.1
20260906145255 32 124 4.8 19.3 0.00 0.00 0.00 57 757.4
20260906143722 31 163 1.6 19.3 0.00 0.00 0.00 60 641.3
20260906143221 31 11 3.2 19.3 0.00 0.00 0.00 62 545.4
20260906142720 31 89 1.6 19.3 0.00 0.00 0.00 63 498.0
20260906142219 30 58 3.2 19.3 0.00 0.00 0.00 63 531.0
20260906141718 30 150 1.6 19.3 0.00 0.00 0.00 64 427.5
20260906140702 30 14 0.0 19.3 0.00 0.00 0.00 65 372.8
20260906140201 30 75 0.0 19.3 0.00 0.00 0.00 66 522.8
20260906134628 28 18 1.6 19.3 0.00 0.00 0.00 70 274.3
20260906132541 27 13 1.6 19.3 0.00 0.00 0.00 75 335.2
20260906132040 26 12 0.0 19.3 0.00 0.00 0.00 76 449.9
20260906123333 23 0 0.0 19.3 0.00 0.00 0.00 84 1218.4
20260906122316 23 0 0.0 19.3 0.00 0.00 0.00 85 1162.5
20260906121300 23 0 0.0 19.3 0.00 0.00 0.00 86 941.9
20260906120243 22 162 0.0 19.3 0.00 0.00 0.00 87 837.3
20260906113122 22 254 0.0 19.3 0.00 0.00 0.00 87 854.8
20260906112621 22 226 0.0 19.3 0.00 0.00 0.00 87 842.5
20260906112120 22 229 0.0 19.3 0.00 0.00 0.00 86 839.6
20260906111619 22 226 0.0 19.3 0.00 0.00 0.00 86 838.4
20260906111118 22 227 0.0 19.3 0.00 0.00 0.00 86 847.0
20260906105045 22 212 0.0 19.3 0.00 0.00 0.00 85 811.8
20260906104544 22 222 0.0 19.3 0.00 0.00 0.00 85 815.4
20260906103528 23 221 0.0 19.3 0.00 0.00 0.00 85 825.6
20260906103027 23 226 0.0 19.3 0.00 0.00 0.00 85 834.4
20260906101455 23 223 0.0 19.3 0.00 0.00 0.00 85 819.1
20260906095922 23 220 0.0 19.3 0.00 0.00 0.00 84 775.1
20260906095422 23 220 0.0 19.3 0.00 0.00 0.00 84 734.0
20260906094922 23 219 0.0 19.3 0.00 0.00 0.00 84 649.9
20260906093905 23 140 0.0 19.3 0.00 0.00 0.00 84 598.0
20260906093404 23 145 0.0 19.3 0.00 0.00 0.00 83 635.0
20260906092347 23 119 0.0 19.3 0.00 0.00 0.00 83 633.0
20260906090814 23 135 0.0 19.3 0.00 0.00 0.00 83 529.7
20260906090313 23 106 0.0 19.3 0.00 0.00 0.00 83 504.8
20260906085813 23 117 0.0 19.3 0.00 0.00 0.00 83 524.0
20260906084756 24 131 0.0 19.3 0.00 0.00 0.00 82 557.8
20260906083739 24 71 0.0 19.3 0.00 0.00 0.00 82 528.1
20260906083238 24 89 0.0 19.3 0.00 0.00 0.00 82 521.0
20260906081705 25 219 0.0 19.3 0.00 0.00 0.00 81 856.7
20260906075101 25 241 0.0 19.3 0.00 0.00 0.00 79 814.4
20260906074044 25 234 0.0 19.3 0.00 0.00 0.00 79 743.8
20260906072511 25 91 0.0 19.3 0.00 0.00 0.00 78 646.1
20260906070937 25 339 0.0 19.3 0.00 0.00 0.00 77 898.3
20260906065921 25 141 0.0 19.3 0.00 0.00 0.00 77 658.1
20260906065420 25 154 0.0 19.3 0.00 0.00 0.00 77 730.1
20260906063847 26 0 0.0 19.3 0.00 0.00 0.00 75 1119.1
20260906062315 26 149 0.0 19.3 0.00 0.00 0.00 74 733.1
20260906060226 26 356 0.0 19.3 0.00 0.00 0.00 73 814.2
20260906055725 26 142 0.0 19.3 0.00 0.00 0.00 73 696.5
20260906055224 26 138 0.0 19.3 0.00 0.00 0.00 72 706.0
20260906054723 27 222 0.0 19.3 0.00 0.00 0.00 71 855.5
20260906051602 28 195 0.0 19.3 0.00 0.00 0.00 68 971.4
20260906051101 28 359 0.0 19.3 0.00 0.00 0.00 67 988.0
20260906050044 28 292 0.0 19.3 0.00 0.00 0.00 66 941.0
20260906045028 28 247 1.6 19.3 0.00 0.00 0.00 66 953.1
20260906044527 28 273 3.2 19.3 0.00 0.00 0.00 65 1019.9
20260906043510 28 305 3.2 19.3 0.00 0.00 0.00 65 1036.1
20260906042453 28 268 1.6 19.3 0.00 0.00 0.00 66 911.9
20260906041952 28 353 3.2 19.3 0.00 0.00 0.00 66 844.1
20260906041451 28 187 1.6 19.3 0.00 0.00 0.00 66 727.6
20260906040950 28 183 1.6 19.3 0.00 0.00 0.00 66 743.1
20260906040449 28 184 0.0 19.3 0.00 0.00 0.00 67 778.1
20260906035948 28 185 0.0 19.3 0.00 0.00 0.00 67 850.0
20260906034931 28 174 0.0 19.3 0.00 0.00 0.00 66 778.5
20260906034430 28 201 0.0 19.3 0.00 0.00 0.00 65 789.3
20260906033929 28 202 0.0 19.3 0.00 0.00 0.00 65 813.0
20260906031325 27 182 0.0 19.3 0.00 0.00 0.00 69 736.6
20260906030824 27 181 0.0 19.3 0.00 0.00 0.00 70 773.5
20260906025806 27 202 0.0 19.3 0.00 0.00 0.00 70 858.0
20260906025306 27 193 0.0 19.3 0.00 0.00 0.00 69 958.8
20260906021631 28 228 0.0 19.3 0.00 0.00 0.00 66 912.5
20260906021129 28 224 0.0 19.3 0.00 0.00 0.00 67 989.5
20260906020628 28 304 0.0 19.3 0.00 0.00 0.00 66 1066.4
20260906014025 29 289 0.0 19.3 0.00 0.00 0.00 64 918.3
20260906013009 30 183 0.0 19.3 0.00 0.00 0.00 63 727.9
20260906010404 31 190 0.0 19.3 0.00 0.00 0.00 57 817.0
20260906005903 32 202 0.0 19.3 0.00 0.00 0.00 55 902.6
20260906005403 32 208 0.0 19.3 0.00 0.00 0.00 53 1044.3
20260906004902 33 0 0.0 19.3 0.00 0.00 0.00 51 1150.8
20260906004401 34 0 0.0 19.3 0.00 0.00 0.00 51 1077.8
20260906003344 35 224 0.0 19.3 0.00 0.00 0.00 48 1057.5
20260906002843 35 0 1.6 19.3 0.00 0.00 0.00 46 1204.5
20260906002343 36 0 1.6 19.3 0.00 0.00 0.00 43 1207.1
20260906001842 37 0 1.6 19.3 0.00 0.00 0.00 40 1204.8
20260906000826 37 0 0.0 19.3 0.00 0.00 0.00 39 1162.0
20260906000326 38 37 3.2 19.3 0.00 0.00 0.00 38 1134.3
20260905235823 38 359 0.0 19.3 0.00 0.00 0.00 40 1208.9
20260905235322 39 0 0.0 19.3 0.00 0.00 0.00 36 1211.8
20260905234822 40 0 0.0 19.3 0.00 0.00 0.00 35 1215.7
20260905234321 40 0 0.0 19.3 0.00 0.00 0.00 34 1217.1
20260905233821 40 0 0.0 19.3 0.00 0.00 0.00 35 1218.7
20260905232248 40 0 1.6 19.3 0.00 0.00 0.00 34 1220.9
20260905231748 40 0 1.6 19.3 0.00 0.00 0.00 36 1218.5
20260905231246 39 359 0.0 19.3 0.00 0.00 0.00 36 1212.5
20260905225714 40 359 4.8 19.3 0.00 0.00 0.00 34 1179.3
20260905224658 39 359 8.0 19.3 0.00 0.00 0.00 35 1146.3
20260905223125 38 350 3.2 19.3 0.00 0.00 0.00 37 1115.1
20260905222624 38 305 1.6 19.3 0.00 0.00 0.00 38 1042.1
20260905222124 38 287 8.0 19.3 0.00 0.00 0.00 37 1021.3
20260905220551 38 359 1.6 19.3 0.00 0.00 0.00 38 1084.4
20260905215534 38 357 3.2 19.3 0.00 0.00 0.00 38 1075.0
20260905215034 38 325 4.8 19.3 0.00 0.00 0.00 38 965.7
20260905214017 38 199 9.7 19.3 0.00 0.00 0.00 39 862.3
20260905213517 38 201 4.8 19.3 0.00 0.00 0.00 40 905.5
20260905211944 38 319 8.0 19.3 0.00 0.00 0.00 40 934.9
20260905210411 38 206 8.0 19.3 0.00 0.00 0.00 40 879.8
20260905203807 37 93 3.2 19.3 0.00 0.00 0.00 39 789.2
20260905203306 37 204 6.4 19.3 0.00 0.00 0.00 39 851.4
20260905202806 38 110 4.8 19.3 0.00 0.00 0.00 38 939.0
20260905201234 40 210 3.2 19.3 0.00 0.00 0.00 34 1035.5
20260905200733 41 359 3.2 19.3 0.00 0.00 0.00 34 1136.9
20260905200232 41 358 6.4 19.3 0.00 0.00 0.00 34 1059.0
20260905194659 40 351 0.0 19.3 0.00 0.00 0.00 36 1087.8
20260905194158 40 284 11.3 17.7 0.00 0.00 0.00 37 1055.4
20260905193657 40 339 9.7 17.7 0.00 0.00 0.00 36 1113.8
20260905192640 40 343 4.8 17.7 0.00 0.00 0.00 36 1078.3
20260905191624 38 357 6.4 17.7 0.00 0.00 0.00 37 1097.2
20260905191124 38 352 8.0 17.7 0.00 0.00 0.00 38 1018.9
20260905190623 38 348 4.8 17.7 0.00 0.00 0.00 40 963.1
20260905185051 38 298 6.4 17.7 0.00 0.00 0.00 39 1011.5
20260905180342 37 230 3.2 17.7 0.00 0.00 0.00 42 971.1
20260905175842 37 341 6.4 17.7 0.00 0.00 0.00 42 1052.7